1529596800.4,1803,24.13,74134.3,14.95,-12.43,-12.53,0,*7F
1529596801.68,1804,24.13,74132.3,14.95,-12.71,-12.79,0,*71
1529596802.96,1805,24.13,74132.8,14.99,-12.35,-12.35,0,*74
1529596804.23,1806,24.13,74132.3,14.99,-12.11,-12.11,0,*77
1529596805.46,1807,24.13,74134.8,14.99,-12.25,-12.21,0,*72
1529596806.7,1808,24.13,74132.0,15.03,-12.29,-12.29,0,*7B
1529596807.93,1809,24.13,74132.8,15.01,-12.93,-12.83,0,*79
1529596809.2,1810,24.13,74130.3,15.03,-12.57,-12.57,0,*72
1529596810.46,1811,24.13,74128.0,15.03,-12.43,-12.35,0,*72
1529596811.71,1812,24.13,74128.0,15.03,-12.07,-12.03,0,*74
1529596812.99,1813,24.13,74130.0,15.03,-11.85,-11.85,0,*71
1529596814.27,1814,24.13,74126.8,15.03,-11.59,-11.51,0,*7E
1529596815.52,1815,24.13,74128.3,15.07,-11.41,-11.33,0,*76
1529596816.73,1816,24.13,74130.3,15.07,-11.19,-11.19,0,*70
1529596817.98,1817,24.13,74128.5,15.09,-11.51,-11.67,0,*7A
1529596819.25,1818,24.13,74128.5,15.11,-11.77,-11.73,0,*7D
1529596820.49,1819,24.13,74130.0,15.09,-11.67,-11.77,0,*70
1529596821.76,1820,24.13,74126.3,15.11,-11.77,-11.81,0,*7B
1529596822.99,1821,24.13,74128.0,15.13,-12.15,-12.21,0,*76
1529596824.26,1822,24.13,74128.0,15.15,-12.53,-12.61,0,*75
1529596825.53,1823,24.13,74128.0,15.15,-11.77,-11.77,0,*75
1529596826.8,1824,24.13,74130.3,15.15,-11.85,-11.77,0,*7F
1529596828.0,1825,24.13,74128.0,15.13,-11.41,-11.41,0,*75
1529596829.26,1826,24.13,74130.3,15.17,-11.45,-11.55,0,*73
1529596830.52,1827,24.13,74128.5,15.17,-11.81,-11.81,0,*73
1529596831.79,1828,24.13,74128.8,15.21,-11.81,-11.81,0,*79
1529596833.07,1829,24.13,74128.0,15.21,-11.67,-11.73,0,*7D
1529596834.3,1830,24.13,74130.5,15.21,-12.21,-12.25,0,*74
1529596835.56,1831,24.13,74130.8,15.21,-12.35,-12.47,0,*74
1529596836.79,1832,24.13,74128.3,15.23,-13.01,-13.19,0,*79
1529596838.04,1833,24.13,74128.5,15.21,-13.93,-13.97,0,*77
1529596839.29,1834,24.13,74126.3,15.21,-13.69,-13.83,0,*70
1529596840.51,1835,24.13,74128.0,15.17,-13.69,-13.73,0,*7B
1529596841.73,1836,24.13,74130.0,15.21,-13.55,-13.69,0,*79
1529596842.99,1837,24.13,74124.3,15.21,-14.23,-14.43,0,*71
1529596844.25,1838,24.13,74128.0,15.17,-14.97,-15.01,0,*73
1529596845.48,1839,24.13,74126.0,15.15,-14.37,-14.29,0,*71
1529596846.67,1840,24.13,74128.8,15.13,-13.55,-13.65,0,*75
1529596847.91,1841,24.13,74128.5,15.15,-13.61,-13.73,0,*72
1529596849.16,1842,24.13,74130.0,15.15,-13.61,-13.65,0,*76
1529596850.38,1843,24.13,74134.0,15.13,-13.61,-13.65,0,*71
1529596851.57,1844,24.13,74128.0,15.13,-13.65,-13.73,0,*75
1529596852.82,1845,24.13,74134.0,15.13,-13.61,-13.61,0,*73
1529596854.09,1846,24.13,74130.5,15.15,-12.83,-12.83,0,*76
1529596855.31,1847,24.13,74134.0,15.13,-13.01,-13.19,0,*78
1529596856.53,1848,24.13,74130.5,15.13,-12.89,-13.01,0,*7F
1529596857.75,1849,24.13,74132.0,15.15,-12.97,-13.15,0,*72
1529596858.94,1850,24.13,74134.5,15.13,-13.19,-13.43,0,*78
1529596860.19,1851,24.13,74132.5,15.15,-13.69,-13.87,0,*70
1529596861.38,1852,24.13,74132.8,15.13,-13.47,-13.55,0,*76
1529596862.62,1853,24.13,74134.0,15.13,-12.57,-12.65,0,*75
1529596863.81,1854,24.13,74134.0,15.13,-12.03,-12.03,0,*73
1529596865.01,1855,24.13,74132.8,15.13,-12.03,-12.03,0,*72
1529596866.26,1856,24.13,74132.5,15.15,-12.15,-12.29,0,*78
1529596867.53,1857,24.13,74136.3,15.15,-12.11,-12.15,0,*72
1529596868.76,1858,24.13,74134.3,15.15,-12.29,-12.29,0,*79
1529596870.01,1859,24.13,74136.5,15.17,-12.43,-12.53,0,*7B
1529596871.26,1860,24.13,74134.0,15.21,-12.47,-12.57,0,*74
1529596872.54,1861,24.13,74138.0,15.21,-12.65,-12.71,0,*71
1529596873.79,1862,24.13,74132.8,15.21,-12.71,-12.97,0,*7F
1529596875.07,1863,24.13,74132.8,15.21,-12.83,-12.83,0,*76
1529596876.3,1864,24.13,74136.5,15.21,-13.51,-13.65,0,*76
1529596877.52,1865,24.13,74134.0,15.17,-13.73,-13.73,0,*75
1529596878.75,1866,24.13,74136.8,15.21,-13.07,-13.19,0,*7C
1529596880.01,1867,24.13,74130.3,15.21,-13.19,-13.33,0,*7A
1529596881.28,1868,24.13,74132.3,15.17,-13.29,-13.29,0,*78
1529596882.51,1869,24.13,74134.0,15.21,-13.07,-13.11,0,*7B
1529596883.78,1870,24.13,74132.8,15.21,-12.57,-12.57,0,*74
1529596885.04,1871,24.13,74132.8,15.21,-12.35,-12.39,0,*79
1529596886.29,1872,24.13,74136.3,15.23,-12.15,-12.15,0,*74
1529596887.5,1873,24.13,74136.3,15.23,-12.21,-12.29,0,*7D
1529596888.75,1874,24.13,74136.3,15.23,-12.61,-12.75,0,*77
1529596889.94,1875,24.13,74136.3,15.23,-13.07,-13.15,0,*70
1529596891.17,1876,24.13,74136.3,15.25,-13.51,-13.51,0,*76
1529596892.38,1877,24.13,74136.5,15.23,-13.51,-13.51,0,*71
1529596893.6,1878,24.13,74136.8,15.23,-13.61,-13.73,0,*7D
1529596894.84,1879,24.13,74134.5,15.23,-13.51,-13.61,0,*7C
1529596896.06,1880,24.13,74136.3,15.23,-13.61,-13.65,0,*7D
1529596897.28,1881,24.13,74132.0,15.21,-13.65,-13.65,0,*7A
1529596898.51,1882,24.13,74132.8,15.21,-13.19,-13.23,0,*70
1529596899.74,1883,24.13,74132.8,15.17,-13.55,-13.51,0,*79
1529596900.96,1884,24.13,74132.0,15.21,-13.23,-13.47,0,*7D
1529596902.19,1885,24.13,74132.0,15.21,-12.97,-13.07,0,*76
1529596903.41,1886,24.13,74134.0,15.21,-13.55,-13.65,0,*7E
1529596904.66,1887,24.13,74134.0,15.21,-14.33,-14.43,0,*7B
1529596905.94,1888,24.13,74134.0,15.17,-14.55,-14.47,0,*75
1529596907.16,1889,24.13,74134.0,15.15,-14.61,-14.65,0,*71
1529596908.44,1890,24.13,74134.5,15.15,-14.43,-14.47,0,*79
1529596909.66,1891,24.13,74132.8,15.13,-14.05,-14.19,0,*77
1529596910.94,1892,24.13,74132.5,15.11,-13.29,-13.33,0,*70
1529596912.16,1893,24.13,74132.8,15.11,-13.07,-13.15,0,*79
1529596913.4,1894,24.13,74130.5,15.11,-12.57,-12.47,0,*7C
1529596914.62,1895,24.13,74128.8,15.13,-12.61,-12.47,0,*7A
1529596915.86,1896,24.13,74130.5,15.13,-11.81,-11.77,0,*74
1529596917.08,1897,24.13,74128.3,15.13,-11.33,-11.45,0,*7D
1529596918.35,1898,24.13,74134.5,15.15,-12.15,-12.15,0,*75
1529596919.6,1899,24.13,74130.8,15.17,-12.25,-12.15,0,*75
1529596920.83,1900,24.13,74132.0,15.17,-12.29,-12.39,0,*76
1529596922.06,1901,24.13,74134.5,15.17,-12.29,-12.43,0,*7A
1529596923.31,1902,24.13,74132.3,15.21,-13.11,-13.33,0,*70
1529596924.57,1903,24.13,74130.5,15.17,-14.01,-14.23,0,*74
1529596925.79,1904,24.13,74132.8,15.17,-14.29,-14.37,0,*7C
1529596927.05,1905,24.13,74134.5,15.17,-13.97,-14.29,0,*70
1529596928.3,1906,24.13,74132.3,15.13,-13.87,-14.05,0,*78
1529596929.52,1907,24.13,74130.8,15.13,-14.33,-14.47,0,*77
1529596930.74,1908,24.13,74134.8,15.13,-13.93,-14.05,0,*73
1529596931.98,1909,24.13,74134.5,15.09,-13.87,-13.83,0,*75
1529596933.21,1910,24.13,74134.5,15.09,-13.97,-14.23,0,*71
1529596934.44,1911,24.13,74132.3,15.09,-14.47,-14.69,0,*74
1529596935.69,1912,24.13,74134.5,15.07,-14.97,-15.29,0,*71
1529596936.9,1913,24.13,74132.0,15.05,-14.69,-15.01,0,*79
1529596938.16,1914,24.13,74132.5,15.03,-14.05,-14.33,0,*72
1529596939.41,1915,24.13,74134.8,15.03,-13.29,-13.55,0,*7D
1529596940.62,1916,24.13,74132.8,15.01,-12.25,-12.39,0,*7A
1529596941.82,1917,24.13,74134.5,15.01,-12.21,-12.47,0,*76
1529596943.08,1918,24.13,74132.8,15.03,-12.43,-12.79,0,*72
1529596944.36,1919,24.13,74132.8,15.03,-11.63,-11.93,0,*75
1529596945.62,1920,24.13,74134.3,15.05,-11.59,-11.89,0,*7B
1529596946.82,1921,24.13,74132.5,15.05,-11.45,-12.03,0,*76
1529596948.08,1922,24.13,74134.0,15.07,-11.59,-12.03,0,*7A
1529596949.32,1923,24.13,74130.3,15.07,-11.15,-11.67,0,*72
1529596950.54,1924,24.13,74132.5,15.09,-11.15,-11.81,0,*73
1529596951.76,1925,24.13,74134.3,15.11,-10.85,-11.45,0,*7B
1529596953.0,1926,24.13,74134.8,15.11,-11.19,-11.77,0,*7D
1529596954.25,1927,24.13,74132.5,15.13,-11.07,-11.73,0,*75
1529596955.46,1928,24.13,74132.3,15.13,-11.11,-11.77,0,*79
1529596956.69,1929,24.13,74132.5,15.15,-11.41,-12.29,0,*73
1529596957.97,1930,24.13,74128.5,15.17,-11.29,-12.15,0,*78
1529596959.22,1931,24.13,74132.3,15.13,-11.59,-12.61,0,*79
1529596960.49,1932,24.13,74132.8,15.15,-11.77,-12.83,0,*7C
1529596961.74,1933,24.13,74128.0,15.17,-11.41,-12.57,0,*73
1529596962.96,1934,24.13,74130.5,15.17,-11.19,-12.29,0,*70
1529596964.24,1935,24.13,74126.3,15.17,-11.33,-12.57,0,*70
1529596965.49,1936,24.13,74130.8,15.21,-10.85,-12.11,0,*78
1529596966.74,1937,24.13,74128.0,15.21,-10.45,-11.73,0,*72
1529596968.01,1938,24.13,74128.5,15.17,-10.75,-12.11,0,*7C
1529596969.24,1939,24.13,74128.3,15.21,-11.11,-12.47,0,*78
1529596970.49,1940,24.13,74130.0,15.21,-10.85,-12.35,0,*7F
1529596971.75,1941,24.13,74128.5,15.21,-10.71,-12.21,0,*70
1529596972.98,1942,24.13,74128.0,15.23,-10.71,-12.29,0,*79
1529596974.23,1943,24.13,74124.3,15.21,-10.45,-12.07,0,*71
1529596975.47,1944,24.13,74126.3,15.21,-10.05,-11.67,0,*77
1529596976.69,1945,24.13,74126.3,15.23,-9.67,-11.37,0,*4D
1529596977.93,1946,24.13,74124.0,15.25,-9.45,-11.19,0,*44
1529596979.16,1947,24.13,74126.0,15.27,-8.93,-10.75,0,*46
1529596980.39,1948,24.13,74130.0,15.27,-8.93,-10.79,0,*45
1529596981.64,1949,24.13,74124.8,15.29,-9.37,-11.41,0,*4F
1529596982.85,1950,24.13,74122.5,15.31,-9.27,-11.33,0,*4A
1529596984.05,1951,24.13,74126.3,15.31,-8.75,-10.97,0,*42
1529596985.29,1952,24.13,74126.3,15.33,-8.37,-10.79,0,*45
1529596986.54,1953,24.13,74124.8,15.33,-8.25,-10.67,0,*48
1529596987.79,1954,24.13,74124.3,15.35,-8.03,-10.67,0,*4D
1529596989.03,1955,24.13,74122.3,15.37,-7.87,-10.67,0,*4D
1529596990.27,1956,24.13,74120.0,15.39,-7.91,-10.71,0,*40
1529596991.49,1957,24.13,74124.0,15.39,-7.87,-10.75,0,*42
1529596992.68,1958,24.13,74124.0,15.43,-7.83,-10.93,0,*4C
1529596993.92,1959,24.13,74122.5,15.43,-8.11,-11.37,0,*46
1529596995.11,1960,24.13,74124.8,15.43,-7.87,-11.19,0,*40
1529596996.35,1961,24.13,74130.0,15.45,-7.95,-11.45,0,*4D
1529596997.59,1962,24.13,74128.8,15.45,-7.65,-11.15,0,*44
1529596998.86,1963,24.13,74130.3,15.45,-7.35,-10.79,0,*4B
1529597000.07,1964,24.13,74128.8,15.45,-7.49,-11.01,0,*49
1529597001.26,1965,24.13,74128.8,15.47,-7.23,-10.89,0,*47
1529597002.48,1966,24.13,74126.8,15.47,-7.27,-11.01,0,*41
1529597003.67,1967,24.13,74130.5,15.47,-7.15,-10.93,0,*4B
1529597004.92,1968,24.13,74130.3,15.51,-7.31,-10.97,0,*41
1529597006.19,1969,24.13,74130.8,15.51,-7.57,-11.29,0,*44
1529597007.44,1970,24.13,74130.8,15.51,-7.43,-11.15,0,*46
1529597008.68,1971,24.13,74128.8,15.53,-7.73,-11.55,0,*42
1529597009.93,1972,24.13,74128.3,15.53,-8.11,-11.77,0,*4A
1529597011.14,1973,24.19,74132.3,15.53,-8.33,-11.93,0,*41
1529597012.38,1974,24.13,74128.5,15.55,-8.29,-11.85,0,*4C
1529597013.6,1975,24.13,74130.3,15.53,-8.37,-11.77,0,*49
1529597014.85,1976,24.13,74126.0,15.55,-9.01,-12.35,0,*4D
1529597016.1,1977,24.13,74124.8,15.55,-8.89,-12.07,0,*4C
1529597017.34,1978,24.13,74124.3,15.53,-9.61,-12.75,0,*47
1529597018.57,1979,24.13,74124.8,15.55,-9.27,-12.29,0,*4B
1529597019.81,1980,24.13,74124.0,15.55,-9.67,-12.57,0,*40
1529597021.03,1981,24.19,74126.5,15.55,-9.71,-12.29,0,*4F
1529597022.3,1982,24.19,74126.8,15.55,-9.83,-12.07,0,*4D
1529597023.55,1983,24.13,74124.3,15.55,-9.27,-11.63,0,*43
1529597024.82,1984,24.13,74126.3,15.55,-9.37,-11.51,0,*44
1529597026.02,1985,24.13,74130.0,15.57,-9.01,-10.93,0,*4D
1529597027.22,1986,24.13,74126.0,15.57,-9.23,-11.01,0,*44
1529597028.43,1987,24.13,74126.0,15.57,-9.53,-11.19,0,*4B
1529597029.67,1988,24.13,74124.5,15.59,-9.89,-11.29,0,*4E
1529597030.92,1989,24.13,74120.8,15.59,-10.23,-11.67,0,*7D
1529597032.16,1990,24.13,74120.0,15.59,-11.73,-13.15,0,*76
1529597033.38,1991,24.13,74120.3,15.59,-12.29,-13.69,0,*70
1529597034.6,1992,24.13,74126.0,15.57,-12.75,-13.93,0,*71
1529597035.82,1993,24.13,74120.3,15.55,-13.07,-14.29,0,*70
1529597037.08,1994,24.13,74120.5,15.53,-13.97,-14.97,0,*7D
1529597038.36,1995,24.13,74118.3,15.51,-14.55,-15.43,0,*7F
1529597039.61,1996,24.13,74118.3,15.49,-14.97,-15.81,0,*75
1529597040.86,1997,24.13,74122.3,15.45,-14.83,-15.63,0,*71
1529597042.05,1998,24.19,74124.3,15.39,-15.15,-15.99,0,*7E
1529597043.3,1999,24.13,74122.5,15.39,-14.83,-15.43,0,*76
1529597044.52,2000,24.13,74122.3,15.35,-14.15,-14.89,0,*78
1529597045.73,2001,24.19,74126.0,15.35,-14.69,-15.21,0,*71
1529597046.96,2002,24.13,74120.8,15.31,-14.51,-15.11,0,*7E
1529597048.19,2003,24.19,74124.5,15.31,-14.75,-15.25,0,*7E
1529597049.39,2004,24.19,74120.3,15.27,-15.15,-15.71,0,*78
1529597050.59,2005,24.13,74120.3,15.27,-15.11,-15.63,0,*7E
1529597051.82,2006,24.13,74124.3,15.23,-15.53,-16.09,0,*70
1529597053.05,2007,24.13,74124.0,15.23,-15.89,-16.55,0,*7F
1529597054.3,2008,24.13,74120.5,15.17,-15.49,-15.89,0,*79
1529597055.55,2009,24.13,74118.0,15.17,-14.43,-14.89,0,*72
1529597056.79,2010,24.13,74116.5,15.15,-14.15,-14.61,0,*7D
1529597058.03,2011,24.13,74122.0,15.15,-13.37,-13.69,0,*74
1529597059.28,2012,24.13,74120.8,15.15,-13.83,-14.29,0,*7B
1529597060.53,2013,24.13,74120.5,15.15,-13.83,-14.11,0,*71
1529597061.78,2014,24.13,74122.8,15.15,-14.01,-14.29,0,*70
1529597063.0,2015,24.13,74124.0,15.13,-13.07,-13.33,0,*7A
1529597064.22,2016,24.13,74124.8,15.13,-13.65,-14.05,0,*7F
1529597065.44,2017,24.19,74126.3,15.15,-13.51,-13.69,0,*72
1529597066.69,2018,24.19,74124.8,15.15,-13.55,-13.87,0,*79
1529597067.93,2019,24.19,74124.3,15.15,-13.29,-13.55,0,*7C
1529597069.18,2020,24.19,74126.5,15.15,-13.01,-13.23,0,*7D
1529597070.43,2021,24.13,74124.0,15.15,-13.29,-13.43,0,*70
1529597071.65,2022,24.19,74128.3,15.15,-13.43,-13.55,0,*78
1529597072.87,2023,24.19,74128.5,15.15,-13.43,-13.51,0,*7D
1529597074.07,2024,24.13,74126.0,15.13,-14.29,-14.33,0,*74
1529597075.34,2025,24.19,74130.0,15.15,-13.83,-13.87,0,*7C
1529597076.58,2026,24.13,74128.3,15.13,-12.61,-12.79,0,*74
1529597077.81,2027,24.13,74130.8,15.15,-12.89,-12.89,0,*7A
1529597079.02,2028,24.19,74132.3,15.15,-13.15,-13.15,0,*75
1529597080.27,2029,24.19,74134.8,15.17,-13.61,-13.51,0,*75
1529597081.49,2030,24.13,74130.5,15.17,-13.69,-13.73,0,*75
1529597082.71,2031,24.19,74136.8,15.15,-13.73,-13.73,0,*7D
1529597083.98,2032,24.13,74132.5,15.17,-14.75,-15.01,0,*7E
1529597085.2,2033,24.13,74128.8,15.15,-14.61,-14.61,0,*7F
1529597086.4,2034,24.19,74120.3,15.13,-14.29,-14.29,0,*7E
1529597087.59,2035,24.13,74122.3,15.13,-13.73,-13.73,0,*7F
1529597088.87,2036,24.19,74122.3,15.15,-13.87,-14.01,0,*73
1529597090.07,2037,24.19,74124.0,15.13,-14.15,-14.19,0,*71
1529597091.29,2038,24.19,74122.0,15.13,-13.33,-13.43,0,*75
1529597092.48,2039,24.19,74124.8,15.13,-12.89,-12.89,0,*73
1529597093.75,2040,24.13,74126.3,15.15,-12.71,-12.83,0,*76
1529597095.03,2041,24.19,74124.3,15.15,-12.57,-12.53,0,*7E
1529597096.26,2042,24.19,74130.5,15.17,-12.29,-12.29,0,*7B
1529597097.54,2043,24.19,74128.3,15.21,-12.07,-11.93,0,*71
1529597098.77,2044,24.19,74128.5,15.21,-12.25,-12.25,0,*78
1529597100.05,2045,24.19,74130.0,15.21,-12.57,-12.53,0,*7D
1529597101.28,2046,24.13,74128.0,15.21,-13.11,-13.19,0,*72
1529597102.51,2047,24.19,74128.8,15.23,-14.05,-14.33,0,*7C
1529597103.71,2048,24.19,74128.0,15.23,-15.63,-15.63,0,*76
1529597104.98,2049,24.19,74126.8,15.21,-16.31,-16.31,0,*75
1529597106.26,2050,24.19,74122.5,15.17,-16.17,-16.27,0,*7B
1529597107.46,2051,24.13,74122.3,15.13,-15.53,-15.63,0,*7E
1529597108.68,2052,24.19,74126.0,15.11,-16.03,-16.03,0,*7C
1529597109.9,2053,24.19,74120.8,15.09,-15.53,-15.57,0,*70
1529597111.15,2054,24.19,74120.3,15.09,-15.35,-15.35,0,*73
1529597112.43,2055,24.13,74118.3,15.07,-14.83,-14.97,0,*79
1529597113.71,2056,24.19,74122.3,15.07,-14.83,-14.83,0,*7F
1529597114.93,2057,24.19,74118.8,15.05,-14.61,-14.55,0,*7B
1529597116.18,2058,24.13,74118.8,15.05,-14.75,-14.79,0,*7F
1529597117.42,2059,24.19,74126.5,15.05,-13.79,-13.79,0,*72
1529597118.67,2060,24.19,74122.3,15.05,-13.87,-14.01,0,*71
1529597119.89,2061,24.19,74120.3,15.05,-14.33,-14.43,0,*7E
1529597121.11,2062,24.19,74122.3,15.05,-13.93,-14.01,0,*76
1529597122.33,2063,24.19,74124.5,15.05,-13.87,-13.93,0,*7E
1529597123.56,2064,24.19,74126.8,15.05,-14.05,-14.15,0,*7D
1529597124.81,2065,24.19,74126.0,15.05,-13.61,-13.61,0,*7D
1529597126.06,2066,24.13,74122.5,15.07,-13.29,-13.43,0,*70
1529597127.25,2067,24.19,74130.3,15.05,-13.43,-13.43,0,*7F
1529597128.47,2068,24.19,74126.0,15.07,-12.89,-12.89,0,*72
1529597129.72,2069,24.19,74126.5,15.07,-13.23,-13.29,0,*79
1529597131.0,2070,24.19,74130.8,15.07,-12.75,-12.75,0,*7B
1529597132.24,2071,24.19,74130.3,15.07,-13.69,-13.83,0,*7E
1529597133.53,2072,24.19,74124.8,15.11,-14.47,-14.51,0,*79
1529597134.8,2073,24.19,74124.0,15.07,-14.83,-15.01,0,*73
1529597136.05,2074,24.19,74122.0,15.05,-15.81,-15.89,0,*75
1529597137.3,2075,24.19,74120.8,15.03,-15.21,-15.29,0,*72
1529597138.58,2076,24.19,74118.8,15.03,-14.79,-14.93,0,*7D
1529597139.87,2077,24.19,74118.5,15.03,-14.47,-14.55,0,*7B
1529597141.13,2078,24.19,74118.8,15.03,-14.05,-14.15,0,*76
1529597142.34,2079,24.19,74116.3,15.01,-14.23,-14.33,0,*75
1529597143.59,2080,24.19,74122.8,15.03,-14.55,-14.61,0,*77
1529597144.82,2081,24.19,74120.8,15.01,-13.97,-13.93,0,*77
1529597146.09,2082,24.19,74122.0,15.03,-13.79,-13.79,0,*72
1529597147.34,2083,24.19,74126.3,15.01,-13.83,-13.83,0,*71
1529597148.59,2084,24.13,74120.8,15.03,-13.47,-13.61,0,*70
1529597149.84,2085,24.19,74124.8,15.01,-13.33,-13.33,0,*77
1529597151.08,2086,24.19,74124.0,15.03,-13.19,-13.19,0,*76
1529597152.34,2087,24.19,74124.5,15.03,-14.01,-14.29,0,*7D
1529597153.61,2088,24.19,74126.0,15.03,-13.87,-13.79,0,*79
1529597154.81,2089,24.19,74124.0,15.01,-13.23,-13.23,0,*7B
1529597156.05,2090,24.19,74124.3,15.03,-14.15,-14.15,0,*71
1529597157.28,2091,24.19,74122.8,15.03,-14.33,-14.33,0,*70
1529597158.51,2092,24.19,74124.8,15.03,-14.19,-14.29,0,*70
1529597159.76,2093,24.19,74120.8,15.03,-13.87,-13.93,0,*77
1529597160.99,2094,24.19,74120.3,15.03,-13.73,-13.73,0,*75
1529597162.23,2095,24.19,74126.0,15.03,-13.87,-13.93,0,*71
1529597163.49,2096,24.19,74130.5,15.03,-13.55,-13.61,0,*70
1529597164.69,2097,24.19,74126.8,15.05,-13.15,-13.19,0,*7C
1529597165.88,2098,24.19,74124.8,15.05,-13.43,-13.47,0,*7B
1529597167.09,2099,24.19,74124.0,15.05,-13.15,-13.01,0,*7B
1529597168.34,2100,24.19,74124.8,15.09,-12.79,-12.83,0,*76
1529597169.56,2101,24.19,74126.5,15.05,-14.01,-13.93,0,*72
1529597170.82,2102,24.19,74126.8,15.07,-13.01,-12.97,0,*71
1529597172.01,2103,24.19,74130.3,15.05,-13.07,-13.07,0,*7C
1529597173.23,2104,24.19,74128.5,15.07,-13.73,-13.73,0,*79
1529597174.49,2105,24.19,74126.5,15.05,-14.05,-14.01,0,*7E
1529597175.71,2106,24.19,74126.8,15.07,-13.43,-13.51,0,*78
1529597176.93,2107,24.19,74128.5,15.07,-14.29,-14.37,0,*75
1529597178.21,2108,24.19,74128.3,15.07,-14.55,-14.51,0,*71
1529597179.4,2109,24.19,74130.8,15.05,-13.93,-13.93,0,*76
1529597180.64,2110,24.19,74130.8,15.05,-14.43,-14.43,0,*7E
1529597181.85,2111,24.19,74130.8,15.05,-14.15,-14.15,0,*7F
1529597183.05,2112,24.19,74128.5,15.05,-14.89,-14.89,0,*7C
1529597184.28,2113,24.19,74130.5,15.05,-14.89,-15.01,0,*7C
1529597185.53,2114,24.19,74128.5,15.03,-14.89,-15.01,0,*7D
1529597186.78,2115,24.19,74130.0,15.01,-14.79,-14.83,0,*7A
1529597188.0,2116,24.19,74126.3,15.01,-15.21,-15.25,0,*78
1529597189.26,2117,24.19,74124.3,14.95,-15.29,-15.39,0,*70
1529597190.54,2118,24.19,74130.3,14.95,-15.89,-15.89,0,*7E
1529597191.82,2119,24.19,74124.0,14.95,-15.89,-15.89,0,*7F
1529597193.1,2120,24.19,74124.3,14.91,-16.09,-16.17,0,*7E
1529597194.37,2121,24.19,74126.8,14.91,-15.21,-15.21,0,*70
1529597195.61,2122,24.19,74126.5,14.91,-13.93,-13.87,0,*76
1529597196.88,2123,24.19,74130.5,14.91,-13.61,-13.61,0,*72
1529597198.16,2124,24.19,74128.5,14.91,-13.61,-13.61,0,*75
1529597199.39,2125,24.19,74128.5,14.91,-14.19,-14.19,0,*74
1529597200.62,2126,24.19,74130.0,14.91,-14.19,-14.15,0,*7B
1529597201.81,2127,24.19,74126.0,14.93,-14.89,-14.69,0,*7A
1529597203.07,2128,24.19,74130.3,14.91,-15.43,-15.49,0,*73
1529597204.3,2129,24.19,74130.3,14.89,-14.19,-13.97,0,*70
1529597205.52,2130,24.19,74130.3,14.87,-14.69,-14.65,0,*7B
1529597206.75,2131,24.19,74128.5,14.87,-14.89,-14.89,0,*76
1529597208.0,2132,24.19,74130.8,14.87,-14.69,-14.55,0,*7A
1529597209.22,2133,24.19,74126.5,14.89,-13.97,-13.93,0,*7E
1529597210.47,2134,24.19,74128.8,14.87,-14.43,-14.37,0,*70
1529597211.7,2135,24.19,74132.8,14.87,-13.65,-13.55,0,*71
1529597212.94,2136,24.19,74132.3,14.87,-13.43,-13.29,0,*7D
1529597214.19,2137,24.19,74132.8,14.87,-13.93,-13.83,0,*71
1529597215.42,2138,24.19,74130.8,14.87,-14.29,-14.29,0,*7F
1529597216.65,2139,24.19,74128.8,14.89,-14.51,-14.37,0,*70
1529597217.84,2140,24.19,74130.3,14.89,-14.33,-14.19,0,*76
1529597219.09,2141,24.19,74130.0,14.87,-14.01,-13.93,0,*7D
1529597220.35,2142,24.19,74124.8,14.87,-13.51,-13.29,0,*7D
1529597221.55,2143,24.19,74126.3,14.89,-13.23,-12.97,0,*73
1529597222.8,2144,24.19,74122.8,14.87,-13.79,-13.55,0,*7A
1529597224.05,2145,24.19,74124.0,14.89,-13.61,-13.37,0,*78
1529597225.28,2146,24.19,74126.5,14.91,-14.15,-13.93,0,*78
1529597226.51,2147,24.19,74128.8,14.89,-14.23,-13.97,0,*71
1529597227.74,2148,24.19,74126.8,14.89,-14.47,-14.19,0,*7D
1529597228.99,2149,24.19,74124.5,14.87,-14.23,-13.83,0,*74
1529597230.21,2150,24.19,74128.5,14.89,-13.87,-13.47,0,*73
1529597231.4,2151,24.19,74122.8,14.89,-14.33,-13.93,0,*73
1529597232.66,2152,24.19,74122.8,14.87,-14.37,-13.97,0,*7E
1529597233.89,2153,24.19,74122.5,14.87,-13.69,-13.23,0,*7C
1529597235.1,2154,24.19,74124.5,14.89,-13.51,-12.97,0,*70
1529597236.35,2155,24.19,74120.5,14.89,-14.05,-13.87,0,*77
1529597237.58,2156,24.19,74124.3,14.89,-13.61,-13.19,0,*76
1529597238.83,2157,24.19,74120.3,14.89,-13.29,-12.61,0,*75
1529597240.05,2158,24.19,74118.5,14.89,-12.61,-12.21,0,*73
1529597241.3,2159,24.19,74122.3,14.91,-13.07,-12.61,0,*7E
1529597242.5,2160,24.19,74120.8,14.93,-12.93,-12.47,0,*7E
1529597243.75,2161,24.19,74122.0,14.91,-13.07,-12.57,0,*70
1529597245.02,2162,24.19,74122.5,14.91,-13.01,-12.57,0,*75
1529597246.24,2163,24.19,74118.3,14.93,-12.43,-11.89,0,*71
1529597247.5,2164,24.19,74122.8,14.95,-12.25,-11.67,0,*70
1529597248.77,2165,24.19,74124.5,14.99,-12.65,-12.11,0,*7B
1529597250.02,2166,24.19,74126.8,14.99,-13.07,-12.53,0,*7B
1529597251.3,2167,24.19,74126.5,14.95,-13.37,-12.83,0,*78
1529597252.55,2168,24.19,74120.8,14.99,-13.11,-12.53,0,*72
1529597253.77,2169,24.19,74126.0,14.95,-13.69,-13.15,0,*73
1529597255.0,2170,24.19,74124.3,14.99,-13.73,-13.19,0,*70
1529597256.26,2171,24.19,74122.5,15.01,-13.97,-13.61,0,*74
1529597257.49,2172,24.19,74124.8,14.95,-13.51,-12.89,0,*76
1529597258.71,2173,24.19,74126.5,14.99,-13.73,-13.07,0,*7C
1529597259.94,2174,24.19,74126.3,14.99,-13.65,-12.97,0,*74
1529597261.18,2175,24.19,74126.8,14.99,-13.23,-12.61,0,*7E
1529597262.46,2176,24.19,74124.3,14.99,-13.37,-12.65,0,*7C
1529597263.73,2177,24.19,74126.3,14.99,-12.83,-12.11,0,*70
1529597264.98,2178,24.19,74124.5,14.99,-12.39,-11.63,0,*78
1529597266.22,2179,24.19,74128.5,14.99,-12.07,-11.23,0,*70
1529597267.45,2180,24.19,74130.5,15.01,-12.07,-11.23,0,*76
1529597268.7,2181,24.19,74130.3,15.03,-11.85,-10.93,0,*76
1529597269.99,2182,24.19,74124.8,15.03,-11.63,-10.75,0,*75
1529597271.24,2183,24.19,74130.3,15.07,-11.85,-10.89,0,*7B
1529597272.51,2184,24.19,74128.0,15.07,-11.85,-10.75,0,*7F
1529597273.75,2185,24.19,74132.0,15.07,-11.45,-10.35,0,*76
1529597275.0,2186,24.19,74132.8,15.11,-11.77,-10.53,0,*73
1529597276.25,2187,24.19,74128.8,15.11,-11.73,-10.35,0,*76
1529597277.44,2188,24.19,74132.3,15.13,-12.03,-10.53,0,*7F
1529597278.7,2189,24.19,74134.0,15.15,-11.89,-10.35,0,*79
1529597279.94,2190,24.19,74132.3,15.15,-11.55,-9.97,0,*40
1529597281.19,2191,24.19,74130.3,15.15,-11.97,-10.31,0,*7B
1529597282.45,2192,24.19,74130.8,15.21,-12.47,-10.71,0,*75
1529597283.67,2193,24.19,74128.5,15.17,-12.43,-10.57,0,*71
1529597284.91,2194,24.19,74128.5,15.21,-12.21,-10.27,0,*70
1529597286.16,2195,24.19,74132.0,15.21,-12.11,-10.05,0,*72
1529597287.36,2196,24.19,74132.0,15.23,-12.03,-9.71,0,*4B
1529597288.6,2197,24.19,74134.0,15.23,-11.77,-9.41,0,*49
1529597289.86,2198,24.19,74132.8,15.25,-12.35,-10.01,0,*79
1529597291.11,2199,24.19,74132.8,15.25,-12.53,-9.97,0,*4F
1529597292.37,2200,24.19,74130.5,15.29,-12.07,-9.45,0,*4E
1529597293.62,2201,24.19,74128.8,15.29,-12.65,-10.05,0,*77
1529597294.81,2202,24.19,74130.0,15.27,-12.39,-9.67,0,*4F
1529597296.03,2203,24.19,74128.0,15.27,-12.71,-9.79,0,*4D
1529597297.25,2204,24.19,74132.5,15.27,-12.07,-9.23,0,*44
1529597298.47,2205,24.19,74128.8,15.27,-11.97,-8.93,0,*45
1529597299.7,2206,24.19,74128.8,15.29,-11.73,-8.55,0,*48
1529597300.94,2207,24.19,74132.8,15.29,-11.93,-8.67,0,*46
1529597302.17,2208,24.19,74126.3,15.33,-11.89,-8.59,0,*44
1529597303.39,2209,24.19,74130.0,15.31,-11.93,-8.71,0,*46
1529597304.66,2210,24.19,74130.8,15.33,-12.65,-9.41,0,*44